| time (UTC) | temp C | wind direction | speed KPH | gust KPH | rain 1hr cm | rain 24hr cm | rain mn cm | humidity % | barometer mb |
| 20260505200005 | 27 | 200 | 24.1 | 33.8 | 0.00 | 0.00 | 0.00 | 47 | 1014.3 |
| 20260505195502 | 27 | 186 | 20.9 | 29.0 | 0.00 | 0.00 | 0.00 | 46 | 1014.2 |
| 20260505195009 | 27 | 198 | 9.7 | 32.2 | 0.00 | 0.00 | 0.00 | 47 | 1014.3 |
| 20260505194502 | 27 | 142 | 12.9 | 38.6 | 0.00 | 0.00 | 0.00 | 46 | 1014.4 |
| 20260505194002 | 27 | 213 | 17.7 | 38.6 | 0.00 | 0.00 | 0.00 | 44 | 1014.5 |
| 20260505193503 | 27 | 200 | 11.3 | 32.2 | 0.00 | 0.00 | 0.00 | 43 | 1014.7 |
| 20260505193002 | 27 | 182 | 14.5 | 30.6 | 0.00 | 0.00 | 0.00 | 42 | 1014.6 |
| 20260505192502 | 27 | 149 | 17.7 | 30.6 | 0.00 | 0.00 | 0.00 | 42 | 1014.7 |
| 20260505192002 | 27 | 205 | 12.9 | 33.8 | 0.00 | 0.00 | 0.00 | 43 | 1014.9 |
| 20260505191502 | 27 | 170 | 19.3 | 37.0 | 0.00 | 0.00 | 0.00 | 42 | 1014.9 |
| 20260505191002 | 27 | 224 | 17.7 | 37.0 | 0.00 | 0.00 | 0.00 | 40 | 1014.9 |
| 20260505190502 | 27 | 213 | 11.3 | 35.4 | 0.00 | 0.00 | 0.00 | 41 | 1014.9 |
| 20260505190002 | 27 | 197 | 20.9 | 38.6 | 0.00 | 0.00 | 0.00 | 41 | 1014.9 |
| 20260505185502 | 27 | 182 | 17.7 | 35.4 | 0.00 | 0.00 | 0.00 | 42 | 1015.0 |
| 20260505185003 | 27 | 250 | 25.7 | 37.0 | 0.00 | 0.00 | 0.00 | 43 | 1015.0 |
| 20260505184502 | 27 | 203 | 9.7 | 27.4 | 0.00 | 0.00 | 0.00 | 42 | 1015.0 |
| 20260505184002 | 27 | 167 | 12.9 | 35.4 | 0.00 | 0.00 | 0.00 | 42 | 1015.0 |
| 20260505183502 | 27 | 158 | 29.0 | 35.4 | 0.00 | 0.00 | 0.00 | 42 | 1015.0 |
| 20260505183002 | 27 | 177 | 19.3 | 35.4 | 0.00 | 0.00 | 0.00 | 42 | 1015.1 |
| 20260505182500 | 27 | 226 | 27.4 | 33.8 | 0.00 | 0.00 | 0.00 | 43 | 1015.1 |
| 20260505182002 | 27 | 175 | 19.3 | 37.0 | 0.00 | 0.00 | 0.00 | 44 | 1015.2 |
| 20260505181502 | 27 | 178 | 16.1 | 37.0 | 0.00 | 0.00 | 0.00 | 45 | 1015.2 |
| 20260505181003 | 27 | 202 | 16.1 | 29.0 | 0.00 | 0.00 | 0.00 | 46 | 1015.1 |
| 20260505180500 | 27 | 238 | 19.3 | 32.2 | 0.00 | 0.00 | 0.00 | 44 | 1015.1 |
| 20260505180006 | 27 | 163 | 19.3 | 32.2 | 0.00 | 0.00 | 0.00 | 42 | 1015.2 |
| 20260505175502 | 27 | 171 | 9.7 | 30.6 | 0.00 | 0.00 | 0.00 | 43 | 1015.3 |
| 20260505175002 | 27 | 226 | 12.9 | 37.0 | 0.00 | 0.00 | 0.00 | 43 | 1015.2 |
| 20260505174502 | 27 | 176 | 12.9 | 37.0 | 0.00 | 0.00 | 0.00 | 43 | 1015.3 |
| 20260505174002 | 27 | 257 | 8.0 | 22.5 | 0.00 | 0.00 | 0.00 | 44 | 1015.3 |
| 20260505173502 | 27 | 248 | 12.9 | 33.8 | 0.00 | 0.00 | 0.00 | 45 | 1015.3 |
| 20260505173002 | 26 | 198 | 17.7 | 38.6 | 0.00 | 0.00 | 0.00 | 46 | 1015.4 |
| 20260505172502 | 27 | 183 | 24.1 | 38.6 | 0.00 | 0.00 | 0.00 | 45 | 1015.6 |
| 20260505172002 | 26 | 184 | 11.3 | 24.1 | 0.00 | 0.00 | 0.00 | 45 | 1015.6 |
| 20260505171502 | 26 | 181 | 12.9 | 27.4 | 0.00 | 0.00 | 0.00 | 45 | 1015.6 |
| 20260505171002 | 26 | 197 | 6.4 | 29.0 | 0.00 | 0.00 | 0.00 | 44 | 1015.6 |
| 20260505170502 | 26 | 175 | 19.3 | 29.0 | 0.00 | 0.00 | 0.00 | 46 | 1015.7 |
| 20260505170006 | 26 | 176 | 17.7 | 25.7 | 0.00 | 0.00 | 0.00 | 45 | 1015.8 |
| 20260505165502 | 26 | 161 | 8.0 | 29.0 | 0.00 | 0.00 | 0.00 | 51 | 1015.7 |
| 20260505165002 | 26 | 221 | 17.7 | 29.0 | 0.00 | 0.00 | 0.00 | 46 | 1015.8 |
| 20260505164502 | 26 | 227 | 11.3 | 29.0 | 0.00 | 0.00 | 0.00 | 47 | 1015.8 |
| 20260505164002 | 26 | 143 | 17.7 | 25.7 | 0.00 | 0.00 | 0.00 | 47 | 1015.9 |
| 20260505163502 | 26 | 182 | 20.9 | 27.4 | 0.00 | 0.00 | 0.00 | 50 | 1016.0 |
| 20260505163002 | 25 | 209 | 12.9 | 29.0 | 0.00 | 0.00 | 0.00 | 50 | 1015.9 |
| 20260505162502 | 25 | 215 | 14.5 | 32.2 | 0.00 | 0.00 | 0.00 | 49 | 1016.0 |
| 20260505162002 | 26 | 153 | 19.3 | 25.7 | 0.00 | 0.00 | 0.00 | 49 | 1016.1 |
| 20260505161502 | 25 | 207 | 22.5 | 35.4 | 0.00 | 0.00 | 0.00 | 50 | 1016.1 |
| 20260505161002 | 25 | 163 | 19.3 | 35.4 | 0.00 | 0.00 | 0.00 | 49 | 1016.2 |
| 20260505160502 | 25 | 216 | 9.7 | 27.4 | 0.00 | 0.00 | 0.00 | 51 | 1016.3 |
| 20260505153002 | 25 | 195 | 20.9 | 24.1 | 0.00 | 0.00 | 0.00 | 53 | 1016.3 |
| 20260505152502 | 25 | 224 | 3.2 | 22.5 | 0.00 | 0.00 | 0.00 | 53 | 1016.4 |
| 20260505152002 | 25 | 197 | 12.9 | 24.1 | 0.00 | 0.00 | 0.00 | 55 | 1016.3 |
| 20260505151500 | 24 | 222 | 3.2 | 24.1 | 0.00 | 0.00 | 0.00 | 55 | 1016.3 |
| 20260505151002 | 24 | 215 | 8.0 | 19.3 | 0.00 | 0.00 | 0.00 | 54 | 1016.3 |
| 20260505150502 | 23 | 214 | 9.7 | 22.5 | 0.00 | 0.00 | 0.00 | 56 | 1016.4 |
| 20260505140502 | 22 | 215 | 20.9 | 25.7 | 0.00 | 0.00 | 0.00 | 61 | 1016.6 |
| 20260505125002 | 19 | 300 | 6.4 | 20.9 | 0.00 | 0.00 | 0.00 | 68 | 1016.6 |
| 20260505124502 | 18 | 191 | 6.4 | 16.1 | 0.00 | 0.00 | 0.00 | 68 | 1016.6 |
| 20260505124003 | 18 | 238 | 8.0 | 25.7 | 0.00 | 0.00 | 0.00 | 70 | 1016.6 |
| 20260505123502 | 18 | 225 | 19.3 | 25.7 | 0.00 | 0.00 | 0.00 | 71 | 1016.6 |
| 20260505123003 | 17 | 223 | 8.0 | 19.3 | 0.00 | 0.00 | 0.00 | 72 | 1016.6 |
| 20260505122502 | 17 | 227 | 6.4 | 20.9 | 0.00 | 0.00 | 0.00 | 73 | 1016.6 |
| 20260505122003 | 17 | 202 | 9.7 | 19.3 | 0.00 | 0.00 | 0.00 | 73 | 1016.6 |
| 20260505121501 | 17 | 231 | 6.4 | 19.3 | 0.00 | 0.00 | 0.00 | 74 | 1016.6 |
| 20260505121003 | 16 | 249 | 8.0 | 19.3 | 0.00 | 0.00 | 0.00 | 75 | 1016.5 |
| 20260505120502 | 16 | 188 | 17.7 | 19.3 | 0.00 | 0.00 | 0.00 | 76 | 1016.5 |
| 20260505120002 | 16 | 215 | 14.5 | 20.9 | 0.00 | 0.00 | 0.00 | 77 | 1016.5 |
| 20260505115500 | 16 | 201 | 16.1 | 19.3 | 0.00 | 0.00 | 0.00 | 77 | 1016.5 |
| 20260505115001 | 16 | 231 | 11.3 | 19.3 | 0.00 | 0.00 | 0.00 | 78 | 1016.6 |
| 20260505114502 | 15 | 211 | 16.1 | 19.3 | 0.00 | 0.00 | 0.00 | 78 | 1016.6 |
| 20260505114002 | 15 | 201 | 9.7 | 19.3 | 0.00 | 0.00 | 0.00 | 79 | 1016.5 |
| 20260505113502 | 15 | 210 | 9.7 | 19.3 | 0.00 | 0.00 | 0.00 | 79 | 1016.5 |
| 20260505113002 | 15 | 211 | 4.8 | 17.7 | 0.00 | 0.00 | 0.00 | 80 | 1016.6 |
| 20260505112500 | 15 | 204 | 4.8 | 17.7 | 0.00 | 0.00 | 0.00 | 80 | 1016.5 |
| 20260505112002 | 15 | 198 | 6.4 | 16.1 | 0.00 | 0.00 | 0.00 | 80 | 1016.4 |
| 20260505111502 | 14 | 210 | 4.8 | 16.1 | 0.00 | 0.00 | 0.00 | 81 | 1016.4 |
| 20260505111002 | 14 | 186 | 11.3 | 14.5 | 0.00 | 0.00 | 0.00 | 81 | 1016.3 |
| 20260505110500 | 14 | 202 | 11.3 | 14.5 | 0.00 | 0.00 | 0.00 | 82 | 1016.3 |
| 20260505102002 | 13 | 194 | 6.4 | 12.9 | 0.00 | 0.00 | 0.00 | 82 | 1015.9 |
| 20260505101502 | 13 | 190 | 3.2 | 12.9 | 0.00 | 0.00 | 0.00 | 82 | 1015.8 |
| 20260505101002 | 13 | 192 | 4.8 | 12.9 | 0.00 | 0.00 | 0.00 | 82 | 1015.7 |
| 20260505100502 | 13 | 229 | 6.4 | 12.9 | 0.00 | 0.00 | 0.00 | 82 | 1015.6 |
| 20260505100004 | 13 | 200 | 1.6 | 12.9 | 0.00 | 0.00 | 0.00 | 81 | 1015.6 |
| 20260505095502 | 13 | 220 | 6.4 | 12.9 | 0.00 | 0.00 | 0.00 | 81 | 1015.6 |
| 20260505095002 | 13 | 207 | 6.4 | 17.7 | 0.00 | 0.00 | 0.00 | 81 | 1015.5 |
| 20260505094502 | 13 | 196 | 4.8 | 17.7 | 0.00 | 0.00 | 0.00 | 81 | 1015.4 |
| 20260505094002 | 13 | 211 | 6.4 | 16.1 | 0.00 | 0.00 | 0.00 | 81 | 1015.4 |
| 20260505093502 | 13 | 203 | 4.8 | 16.1 | 0.00 | 0.00 | 0.00 | 80 | 1015.3 |
| 20260505093003 | 13 | 199 | 1.6 | 14.5 | 0.00 | 0.00 | 0.00 | 80 | 1015.3 |
| 20260505092502 | 14 | 201 | 11.3 | 16.1 | 0.00 | 0.00 | 0.00 | 80 | 1015.3 |
| 20260505092002 | 14 | 187 | 9.7 | 16.1 | 0.00 | 0.00 | 0.00 | 80 | 1015.3 |
| 20260505091502 | 14 | 214 | 14.5 | 17.7 | 0.00 | 0.00 | 0.00 | 79 | 1015.3 |
| 20260505091002 | 14 | 234 | 4.8 | 14.5 | 0.00 | 0.00 | 0.00 | 79 | 1015.2 |
| 20260505090502 | 14 | 200 | 8.0 | 14.5 | 0.00 | 0.00 | 0.00 | 79 | 1015.2 |
| 20260505090002 | 14 | 203 | 4.8 | 17.7 | 0.00 | 0.00 | 0.00 | 78 | 1015.2 |
| 20260505085502 | 14 | 216 | 9.7 | 17.7 | 0.00 | 0.00 | 0.00 | 78 | 1015.2 |
| 20260505085002 | 14 | 202 | 9.7 | 17.7 | 0.00 | 0.00 | 0.00 | 77 | 1015.2 |
| 20260505084500 | 15 | 204 | 8.0 | 17.7 | 0.00 | 0.00 | 0.00 | 77 | 1015.1 |
| 20260505084002 | 15 | 217 | 11.3 | 14.5 | 0.00 | 0.00 | 0.00 | 77 | 1015.1 |
| 20260505083500 | 15 | 223 | 11.3 | 16.1 | 0.00 | 0.00 | 0.00 | 77 | 1015.1 |
| 20260505083002 | 15 | 211 | 3.2 | 16.1 | 0.00 | 0.00 | 0.00 | 76 | 1015.1 |
| 20260505082500 | 15 | 175 | 6.4 | 16.1 | 0.00 | 0.00 | 0.00 | 76 | 1015.1 |
| 20260505082002 | 15 | 218 | 3.2 | 14.5 | 0.00 | 0.00 | 0.00 | 76 | 1015.2 |
| 20260505081500 | 15 | 215 | 8.0 | 12.9 | 0.00 | 0.00 | 0.00 | 75 | 1015.2 |
| 20260505081002 | 15 | 199 | 8.0 | 12.9 | 0.00 | 0.00 | 0.00 | 75 | 1015.1 |
| 20260505080502 | 15 | 234 | 3.2 | 14.5 | 0.00 | 0.00 | 0.00 | 75 | 1015.1 |
| 20260505080001 | 15 | 196 | 4.8 | 16.1 | 0.00 | 0.00 | 0.00 | 74 | 1015.1 |
| 20260505075459 | 15 | 201 | 9.7 | 16.1 | 0.00 | 0.00 | 0.00 | 74 | 1015.0 |
| 20260505075002 | 15 | 238 | 4.8 | 12.9 | 0.00 | 0.00 | 0.00 | 74 | 1015.0 |
| 20260505074502 | 15 | 190 | 4.8 | 12.9 | 0.00 | 0.00 | 0.00 | 74 | 1015.0 |
| 20260505074002 | 15 | 175 | 4.8 | 16.1 | 0.00 | 0.00 | 0.00 | 73 | 1014.9 |
| 20260505073500 | 15 | 214 | 6.4 | 16.1 | 0.00 | 0.00 | 0.00 | 73 | 1014.8 |
| 20260505073002 | 15 | 179 | 8.0 | 16.1 | 0.00 | 0.00 | 0.00 | 73 | 1014.8 |
| 20260505072500 | 15 | 190 | 3.2 | 14.5 | 0.00 | 0.00 | 0.00 | 73 | 1014.7 |
| 20260505072002 | 15 | 227 | 3.2 | 14.5 | 0.00 | 0.00 | 0.00 | 73 | 1014.7 |
| 20260505071500 | 16 | 234 | 6.4 | 14.5 | 0.00 | 0.00 | 0.00 | 73 | 1014.7 |
| 20260505071002 | 16 | 205 | 6.4 | 14.5 | 0.00 | 0.00 | 0.00 | 72 | 1014.6 |
| 20260505070500 | 16 | 206 | 6.4 | 14.5 | 0.00 | 0.00 | 0.00 | 72 | 1014.6 |
| 20260505070003 | 16 | 195 | 4.8 | 14.5 | 0.00 | 0.00 | 0.00 | 72 | 1014.6 |
| 20260505065500 | 16 | 212 | 9.7 | 16.1 | 0.00 | 0.00 | 0.00 | 72 | 1014.6 |
| 20260505065002 | 16 | 227 | 6.4 | 17.7 | 0.00 | 0.00 | 0.00 | 71 | 1014.6 |
| 20260505064459 | 16 | 215 | 9.7 | 17.7 | 0.00 | 0.00 | 0.00 | 71 | 1014.7 |
| 20260505064001 | 16 | 211 | 12.9 | 17.7 | 0.00 | 0.00 | 0.00 | 71 | 1014.7 |
| 20260505063459 | 16 | 221 | 6.4 | 17.7 | 0.00 | 0.00 | 0.00 | 71 | 1014.8 |
| 20260505063001 | 16 | 188 | 4.8 | 16.1 | 0.00 | 0.00 | 0.00 | 70 | 1014.8 |
| 20260505062502 | 16 | 196 | 9.7 | 16.1 | 0.00 | 0.00 | 0.00 | 70 | 1014.8 |
| 20260505062002 | 16 | 206 | 9.7 | 16.1 | 0.00 | 0.00 | 0.00 | 70 | 1014.9 |
| 20260505061459 | 16 | 239 | 3.2 | 22.5 | 0.00 | 0.00 | 0.00 | 70 | 1014.9 |
| 20260505061002 | 16 | 211 | 9.7 | 22.5 | 0.00 | 0.00 | 0.00 | 70 | 1014.8 |
| 20260505060502 | 16 | 205 | 14.5 | 17.7 | 0.00 | 0.00 | 0.00 | 70 | 1014.9 |
| 20260505060002 | 16 | 180 | 6.4 | 17.7 | 0.00 | 0.00 | 0.00 | 69 | 1014.9 |
| 20260505055500 | 16 | 220 | 8.0 | 16.1 | 0.00 | 0.00 | 0.00 | 69 | 1015.0 |
| 20260505055002 | 16 | 183 | 9.7 | 17.7 | 0.00 | 0.00 | 0.00 | 69 | 1015.0 |
| 20260505054500 | 16 | 194 | 4.8 | 16.1 | 0.00 | 0.00 | 0.00 | 69 | 1014.9 |
| 20260505054002 | 16 | 194 | 4.8 | 16.1 | 0.00 | 0.00 | 0.00 | 69 | 1014.9 |
| 20260505053500 | 16 | 199 | 11.3 | 20.9 | 0.00 | 0.00 | 0.00 | 69 | 1014.9 |
| 20260505053002 | 16 | 195 | 11.3 | 16.1 | 0.00 | 0.00 | 0.00 | 69 | 1015.0 |
| 20260505052459 | 17 | 220 | 11.3 | 16.1 | 0.00 | 0.00 | 0.00 | 69 | 1014.9 |
| 20260505052002 | 17 | 220 | 6.4 | 17.7 | 0.00 | 0.00 | 0.00 | 69 | 1015.0 |
| 20260505051500 | 17 | 213 | 16.1 | 17.7 | 0.00 | 0.00 | 0.00 | 68 | 1015.0 |
| 20260505051002 | 17 | 199 | 6.4 | 22.5 | 0.00 | 0.00 | 0.00 | 68 | 1015.0 |
| 20260505050459 | 17 | 220 | 9.7 | 29.0 | 0.00 | 0.00 | 0.00 | 68 | 1015.1 |
| 20260505041502 | 17 | 205 | 8.0 | 19.3 | 0.00 | 0.00 | 0.00 | 67 | 1015.1 |
| 20260505041002 | 17 | 251 | 14.5 | 19.3 | 0.00 | 0.00 | 0.00 | 67 | 1015.0 |
| 20260505040502 | 17 | 242 | 14.5 | 17.7 | 0.00 | 0.00 | 0.00 | 67 | 1015.0 |
| 20260505040008 | 17 | 228 | 12.9 | 24.1 | 0.00 | 0.00 | 0.00 | 67 | 1015.0 |
| 20260505035503 | 17 | 215 | 6.4 | 24.1 | 0.00 | 0.00 | 0.00 | 67 | 1015.0 |
| 20260505035004 | 17 | 196 | 11.3 | 24.1 | 0.00 | 0.00 | 0.00 | 67 | 1014.9 |
| 20260505034502 | 17 | 205 | 12.9 | 25.7 | 0.00 | 0.00 | 0.00 | 66 | 1014.9 |
| 20260505034003 | 17 | 188 | 14.5 | 25.7 | 0.00 | 0.00 | 0.00 | 66 | 1014.8 |
| 20260505033503 | 17 | 188 | 14.5 | 30.6 | 0.00 | 0.00 | 0.00 | 65 | 1014.8 |
| 20260505033003 | 17 | 209 | 12.9 | 30.6 | 0.00 | 0.00 | 0.00 | 65 | 1014.8 |
| 20260505032503 | 17 | 182 | 4.8 | 29.0 | 0.00 | 0.00 | 0.00 | 65 | 1014.8 |
| 20260505032003 | 17 | 212 | 20.9 | 29.0 | 0.00 | 0.00 | 0.00 | 65 | 1014.8 |
| 20260505031502 | 18 | 221 | 11.3 | 29.0 | 0.00 | 0.00 | 0.00 | 65 | 1014.8 |
| 20260505031004 | 18 | 222 | 16.1 | 20.9 | 0.00 | 0.00 | 0.00 | 65 | 1014.7 |
| 20260505030502 | 18 | 211 | 12.9 | 19.3 | 0.00 | 0.00 | 0.00 | 65 | 1014.8 |
| 20260505030005 | 18 | 207 | 11.3 | 19.3 | 0.00 | 0.00 | 0.00 | 66 | 1014.8 |
| 20260505025502 | 18 | 163 | 12.9 | 24.1 | 0.00 | 0.00 | 0.00 | 66 | 1014.9 |
| 20260505025003 | 18 | 186 | 14.5 | 24.1 | 0.00 | 0.00 | 0.00 | 66 | 1014.8 |
| 20260505024502 | 18 | 206 | 16.1 | 27.4 | 0.00 | 0.00 | 0.00 | 66 | 1014.8 |
| 20260505024004 | 18 | 218 | 20.9 | 27.4 | 0.00 | 0.00 | 0.00 | 66 | 1014.7 |
| 20260505023503 | 18 | 209 | 20.9 | 25.7 | 0.00 | 0.00 | 0.00 | 67 | 1014.7 |
| 20260505023003 | 18 | 215 | 8.0 | 25.7 | 0.00 | 0.00 | 0.00 | 66 | 1014.7 |
| 20260505022502 | 18 | 168 | 25.7 | 27.4 | 0.00 | 0.00 | 0.00 | 67 | 1014.7 |
| 20260505022006 | 18 | 182 | 6.4 | 22.5 | 0.00 | 0.00 | 0.00 | 67 | 1014.7 |
| 20260505021503 | 18 | 215 | 14.5 | 25.7 | 0.00 | 0.00 | 0.00 | 67 | 1014.8 |
| 20260505021008 | 18 | 200 | 14.5 | 20.9 | 0.00 | 0.00 | 0.00 | 67 | 1014.9 |
| 20260505020502 | 18 | 201 | 9.7 | 22.5 | 0.00 | 0.00 | 0.00 | 67 | 1014.9 |
| 20260505020007 | 18 | 213 | 11.3 | 22.5 | 0.00 | 0.00 | 0.00 | 67 | 1015.0 |
| 20260505015502 | 18 | 238 | 22.5 | 22.5 | 0.00 | 0.00 | 0.00 | 67 | 1014.9 |
| 20260505015010 | 18 | 234 | 6.4 | 24.1 | 0.00 | 0.00 | 0.00 | 67 | 1014.9 |
| 20260505014502 | 18 | 192 | 14.5 | 29.0 | 0.00 | 0.00 | 0.00 | 67 | 1014.8 |
| 20260505014005 | 18 | 213 | 11.3 | 29.0 | 0.00 | 0.00 | 0.00 | 67 | 1014.8 |
| 20260505013503 | 18 | 173 | 19.3 | 24.1 | 0.00 | 0.00 | 0.00 | 67 | 1014.7 |
| 20260505013006 | 18 | 209 | 11.3 | 27.4 | 0.00 | 0.00 | 0.00 | 66 | 1014.5 |
| 20260505012502 | 18 | 189 | 16.1 | 27.4 | 0.00 | 0.00 | 0.00 | 66 | 1014.5 |
| 20260505012006 | 18 | 210 | 12.9 | 22.5 | 0.00 | 0.00 | 0.00 | 66 | 1014.4 |
| 20260505011502 | 18 | 207 | 4.8 | 29.0 | 0.00 | 0.00 | 0.00 | 67 | 1014.3 |
| 20260505011006 | 18 | 186 | 19.3 | 22.5 | 0.00 | 0.00 | 0.00 | 67 | 1014.2 |
| 20260505010502 | 18 | 183 | 17.7 | 22.5 | 0.00 | 0.00 | 0.00 | 67 | 1014.1 |
| 20260505010007 | 18 | 146 | 9.7 | 24.1 | 0.00 | 0.00 | 0.00 | 67 | 1014.1 |
| 20260505005502 | 18 | 182 | 16.1 | 24.1 | 0.00 | 0.00 | 0.00 | 66 | 1014.1 |
| 20260505005005 | 19 | 189 | 12.9 | 19.3 | 0.00 | 0.00 | 0.00 | 66 | 1014.0 |
| 20260505004502 | 19 | 168 | 8.0 | 16.1 | 0.00 | 0.00 | 0.00 | 66 | 1013.9 |
| 20260505004004 | 19 | 202 | 6.4 | 24.1 | 0.00 | 0.00 | 0.00 | 66 | 1013.9 |
| 20260505003502 | 19 | 199 | 9.7 | 24.1 | 0.00 | 0.00 | 0.00 | 66 | 1013.8 |
| 20260505003006 | 19 | 209 | 11.3 | 29.0 | 0.00 | 0.00 | 0.00 | 65 | 1013.8 |
| 20260505002503 | 19 | 176 | 12.9 | 29.0 | 0.00 | 0.00 | 0.00 | 65 | 1013.8 |
| 20260505002007 | 19 | 174 | 12.9 | 22.5 | 0.00 | 0.00 | 0.00 | 65 | 1013.7 |
| 20260505001503 | 20 | 204 | 11.3 | 27.4 | 0.00 | 0.00 | 0.00 | 64 | 1013.6 |
| 20260505001004 | 20 | 239 | 8.0 | 27.4 | 0.00 | 0.00 | 0.00 | 64 | 1013.7 |
| 20260505000502 | 20 | 168 | 17.7 | 24.1 | 0.00 | 0.00 | 0.00 | 64 | 1013.6 |
| 20260505000007 | 20 | 160 | 6.4 | 27.4 | 0.00 | 0.00 | 0.00 | 63 | 1013.5 |
| 20260504235502 | 20 | 223 | 8.0 | 27.4 | 0.00 | 0.00 | 0.00 | 63 | 1013.5 |
| 20260504235007 | 20 | 128 | 12.9 | 29.0 | 0.00 | 0.00 | 0.00 | 62 | 1013.4 |
| 20260504234502 | 20 | 173 | 16.1 | 32.2 | 0.00 | 0.00 | 0.00 | 62 | 1013.4 |
| 20260504234006 | 20 | 200 | 8.0 | 32.2 | 0.00 | 0.00 | 0.00 | 62 | 1013.4 |
| 20260504233502 | 20 | 208 | 14.5 | 29.0 | 0.00 | 0.00 | 0.00 | 62 | 1013.3 |
| 20260504233002 | 20 | 192 | 22.5 | 30.6 | 0.00 | 0.00 | 0.00 | 62 | 1013.1 |
| 20260504232502 | 20 | 195 | 14.5 | 30.6 | 0.00 | 0.00 | 0.00 | 62 | 1013.1 |
| 20260504232002 | 21 | 207 | 11.3 | 27.4 | 0.00 | 0.00 | 0.00 | 62 | 1013.1 |
| 20260504231502 | 21 | 178 | 16.1 | 27.4 | 0.00 | 0.00 | 0.00 | 61 | 1012.9 |
| 20260504231002 | 21 | 184 | 9.7 | 27.4 | 0.00 | 0.00 | 0.00 | 61 | 1013.0 |
| 20260504230502 | 21 | 159 | 16.1 | 30.6 | 0.00 | 0.00 | 0.00 | 60 | 1013.0 |
| 20260504230005 | 21 | 155 | 6.4 | 30.6 | 0.00 | 0.00 | 0.00 | 60 | 1013.0 |
| 20260504225502 | 21 | 180 | 29.0 | 30.6 | 0.00 | 0.00 | 0.00 | 59 | 1012.8 |
| 20260504225003 | 21 | 194 | 14.5 | 27.4 | 0.00 | 0.00 | 0.00 | 60 | 1012.8 |
| 20260504224502 | 22 | 161 | 9.7 | 27.4 | 0.00 | 0.00 | 0.00 | 59 | 1012.8 |
| 20260504224003 | 22 | 205 | 14.5 | 30.6 | 0.00 | 0.00 | 0.00 | 59 | 1012.7 |
| 20260504223502 | 22 | 207 | 17.7 | 30.6 | 0.00 | 0.00 | 0.00 | 59 | 1012.7 |
| 20260504223002 | 22 | 159 | 12.9 | 32.2 | 0.00 | 0.00 | 0.00 | 59 | 1012.7 |
| 20260504222502 | 22 | 198 | 19.3 | 32.2 | 0.00 | 0.00 | 0.00 | 57 | 1012.6 |
| 20260504222002 | 22 | 195 | 14.5 | 35.4 | 0.00 | 0.00 | 0.00 | 55 | 1012.7 |
| 20260504221502 | 23 | 200 | 20.9 | 33.8 | 0.00 | 0.00 | 0.00 | 48 | 1012.6 |
| 20260504221002 | 23 | 225 | 12.9 | 33.8 | 0.00 | 0.00 | 0.00 | 40 | 1012.5 |
| 20260504220502 | 24 | 202 | 8.0 | 29.0 | 0.00 | 0.00 | 0.00 | 40 | 1012.5 |
| 20260504220007 | 24 | 211 | 11.3 | 29.0 | 0.00 | 0.00 | 0.00 | 40 | 1012.5 |
| 20260504215502 | 24 | 217 | 8.0 | 30.6 | 0.00 | 0.00 | 0.00 | 40 | 1012.6 |
| 20260504215003 | 23 | 227 | 20.9 | 40.2 | 0.00 | 0.00 | 0.00 | 40 | 1012.5 |
| 20260504214502 | 24 | 222 | 33.8 | 40.2 | 0.00 | 0.00 | 0.00 | 39 | 1012.6 |
| 20260504214004 | 24 | 297 | 14.5 | 33.8 | 0.00 | 0.00 | 0.00 | 39 | 1012.6 |
| 20260504213503 | 24 | 192 | 16.1 | 33.8 | 0.00 | 0.00 | 0.00 | 39 | 1012.7 |
| 20260504213003 | 24 | 196 | 11.3 | 30.6 | 0.00 | 0.00 | 0.00 | 39 | 1012.6 |
| 20260504212503 | 24 | 202 | 8.0 | 30.6 | 0.00 | 0.00 | 0.00 | 40 | 1012.7 |
| 20260504212004 | 24 | 217 | 24.1 | 30.6 | 0.00 | 0.00 | 0.00 | 39 | 1012.7 |
| 20260504211502 | 24 | 191 | 8.0 | 19.3 | 0.00 | 0.00 | 0.00 | 39 | 1012.7 |
| 20260504211005 | 24 | 229 | 12.9 | 25.7 | 0.00 | 0.00 | 0.00 | 39 | 1012.8 |
| 20260504210503 | 24 | 176 | 12.9 | 27.4 | 0.00 | 0.00 | 0.00 | 39 | 1012.8 |
| 20260504210005 | 24 | 220 | 20.9 | 24.1 | 0.00 | 0.00 | 0.00 | 39 | 1012.8 |
| 20260504205502 | 24 | 209 | 14.5 | 30.6 | 0.00 | 0.00 | 0.00 | 38 | 1012.7 |
| 20260504205003 | 24 | 157 | 8.0 | 30.6 | 0.00 | 0.00 | 0.00 | 39 | 1012.8 |
| 20260504204502 | 24 | 223 | 17.7 | 33.8 | 0.00 | 0.00 | 0.00 | 40 | 1012.8 |
| 20260504204002 | 24 | 196 | 4.8 | 33.8 | 0.00 | 0.00 | 0.00 | 41 | 1013.0 |
| 20260504203502 | 24 | 207 | 12.9 | 22.5 | 0.00 | 0.00 | 0.00 | 40 | 1012.8 |
| 20260504203002 | 25 | 189 | 9.7 | 29.0 | 0.00 | 0.00 | 0.00 | 39 | 1012.9 |
| 20260504202502 | 25 | 190 | 14.5 | 29.0 | 0.00 | 0.00 | 0.00 | 40 | 1013.0 |
| 20260504202002 | 25 | 207 | 14.5 | 33.8 | 0.00 | 0.00 | 0.00 | 41 | 1012.9 |
| 20260504201502 | 25 | 239 | 12.9 | 33.8 | 0.00 | 0.00 | 0.00 | 41 | 1013.0 |
| 20260504201003 | 25 | 196 | 25.7 | 25.7 | 0.00 | 0.00 | 0.00 | 40 | 1012.8 |
| 20260504200502 | 25 | 176 | 16.1 | 32.2 | 0.00 | 0.00 | 0.00 | 40 | 1013.1 |